SCP
1 1 1 1 1 1 1 1 1 1 0 0 0 0 0 0 1 0 0 0 0 0 1 1 1 1 1 1 0 0 0 0 0 0 0 0 0 0 0 0 0 0 0
1 1 1 1 1 1 1 1 1 1 0 0 0 0 0 0 1 0 0 0 0 0 1 1 1 1 1 1 0 0 0 0 0 0 0 0 0 0 0 0 0 0 0
1 1 1 1 1 1 1 1 1 1 0 0 0 0 0 0 0 0 0 0 0 0 0 1 1 1 1 1 0 0 0 0 0 0 0 0 0 0 0 0 0 0 0
0 1 1 1 1 2 2 1 1 1 0 0 0 0 0 0 0 0 0 0 0 0 0 0 1 1 1 1 1 0 0 0 0 0 0 0 0 0 0 0 0 0 0
0 1 1 1 1 2 2 1 1 1 0 0 0 0 0 0 0 0 0 0 0 0 0 0 0 1 1 1 1 1 0 0 0 0 0 0 0 0 0 0 0 0 0
0 1 1 1 1 2 2 1 1 1 0 0 0 0 0 0 0 0 0 0 0 1 0 0 0 0 1 1 1 1 1 0 0 0 0 0 0 0 0 0 0 0 0
0 0 1 1 1 1 1 1 1 0 0 0 0 0 0 0 0 0 0 0 0 0 0 0 1 1 1 1 1 1 1 1 0 0 0 0 0 0 0 0 0 0 0
0 0 1 1 1 1 1 0 0 0 0 0 0 0 0 0 0 0 0 0 0 0 0 0 1 1 1 1 1 0 1 1 0 0 0 0 0 0 0 0 0 0 0
0 0 1 1 1 1 0 0 0 0 0 0 0 0 0 0 0 0 0 0 0 0 0 0 0 1 1 1 1 0 0 1 0 0 0 0 0 0 0 0 0 0 0
0 0 0 0 1 1 0 0 0 0 0 0 0 0 0 0 0 0 0 0 0 0 0 0 0 0 1 1 1 0 0 0 0 0 0 0 0 0 0 0 0 0 0
0 0 0 0 0 1 0 0 0 0 0 0 0 0 0 0 0 0 0 0 0 0 0 0 0 0 0 1 1 0 0 0 0 0 0 0 0 0 0 0 0 0 0
0 0 0 0 0 0 0 0 0 0 0 0 0 0 0 0 0 0 0 0 0 0 0 0 0 0 0 0 0 0 0 0 0 0 0 0 0 0 0 0 0 0 0
0 0 0 0 0 0 0 0 0 0 0 0 0 0 0 0 0 0 0 0 0 0 0 0 0 0 0 0 0 0 0 0 0 0 0 0 0 0 0 0 0 0 0
0 0 0 0 0 0 0 0 0 0 0 0 0 0 0 0 0 0 0 0 0 0 0 0 0 0 0 0 0 0 0 0 0 0 0 0 0 0 0 0 0 0 0
0 0 0 0 0 0 0 0 0 0 0 0 0 0 0 0 0 0 0 0 0 0 0 0 0 0 0 0 0 0 0 0 0 0 0 0 0 0 0 0 0 0 0
0 0 0 0 0 0 0 0 0 0 0 0 0 0 0 0 0 0 0 0 0 0 0 0 0 0 0 0 0 0 0 0 0 0 0 0 0 0 0 0 0 0 0
0 0 0 0 0 0 0 0 0 0 0 0 0 0 0 0 0 0 0 0 0 0 0 0 0 0 0 0 0 0 0 0 0 0 0 0 0 0 0 0 0 0 0
0 0 0 0 0 0 0 0 0 0 0 0 0 0 0 0 0 0 0 0 0 0 0 0 0 0 0 0 0 0 0 0 0 0 0 0 0 0 0 0 0 0 0
0 0 0 0 0 0 0 0 0 0 0 0 0 0 0 0 0 0 0 0 0 0 0 0 0 0 0 0 0 0 0 0 0 0 0 0 0 0 0 0 0 0 0
0 0 0 0 0 0 0 0 0 0 0 0 0 0 0 0 0 0 0 0 0 0 0 0 0 0 0 0 0 0 0 0 0 0 0 0 0 0 0 0 0 0 0
0 0 0 0 0 0 0 0 0 0 0 0 0 0 0 0 0 0 0 0 0 0 0 0 0 0 0 0 0 0 0 0 0 0 0 0 0 0 0 0 0 0 0
0 0 0 0 0 0 0 0 0 0 0 0 0 0 0 0 0 0 0 0 0 0 0 0 0 0 0 0 0 0 0 0 0 0 0 0 0 0 0 0 0 0 0
0 0 0 0 0 0 0 0 0 0 0 0 0 0 0 0 0 0 0 0 0 0 0 0 0 0 0 0 0 0 0 0 0 0 0 0 0 0 0 0 0 0 0
0 0 0 0 0 0 0 0 0 0 0 0 0 0 0 0 0 0 0 0 0 0 0 0 0 0 0 0 0 0 0 0 0 0 0 0 0 0 0 0 0 0 0
0 0 0 0 0 0 0 0 0 0 0 0 0 0 0 0 0 0 0 0 0 0 0 0 0 0 0 0 0 0 0 0 0 0 0 0 0 0 0 0 0 0 0
0 0 0 0 0 0 0 0 0 0 0 0 0 0 0 0 0 0 0 0 0 0 0 0 0 0 0 0 0 0 0 0 0 0 0 0 0 0 0 0 0 0 0
Wind_Speed
2 2 1 2 2 2 3 3 3 4 4 4 3 4 3 3 3 3 2 5 6 6 8 9 9 10 11 11 11 11 10 10 10 10 10 10 10 10 10 10 9 9 9
2 2 2 2 2 2 2 3 4 4 3 3 3 3 3 2 2 3 2 3 5 5 6 8 9 10 10 10 11 10 10 9 10 9 9 9 9 9 9 9 9 9 9
2 3 2 2 2 2 3 3 4 3 3 3 3 3 3 2 2 2 2 2 2 4 5 6 8 9 9 10 10 9 9 9 9 9 8 8 8 8 8 8 8 8 8
2 3 3 2 2 2 3 3 3 3 3 3 3 2 2 2 2 2 2 2 2 2 3 5 6 7 8 9 9 8 8 8 7 7 7 7 7 7 6 6 7 7 7
2 2 2 2 3 3 3 3 3 3 3 3 3 3 2 2 2 2 2 2 2 2 2 4 5 6 7 7 7 7 7 7 6 6 6 5 5 5 5 5 5 5 6
3 2 2 3 3 3 2 3 3 3 3 3 4 4 3 2 2 2 1 1 2 2 2 3 3 3 5 6 6 6 6 6 5 5 4 4 4 3 3 4 4 4 5
3 3 2 2 3 3 3 4 3 4 2 3 3 2 2 3 2 1 1 1 1 2 2 2 2 2 2 4 4 5 5 5 4 4 3 3 2 2 2 3 3 4 5
3 3 3 3 3 3 3 3 3 2 2 2 3 3 1 1 1 1 0 1 1 1 2 2 2 3 2 1 2 3 3 3 3 3 3 2 2 1 2 2 3 4 4
3 3 4 4 3 3 4 4 4 4 3 1 1 3 4 3 1 1 1 0 1 1 1 1 2 2 2 1 1 2 2 2 2 2 2 1 1 1 1 2 3 3 4
3 3 4 4 4 3 4 4 3 3 4 3 1 1 1 3 3 1 1 1 0 1 1 1 2 2 2 1 1 1 1 1 2 2 2 1 1 1 2 2 3 4 4
3 3 3 4 4 3 4 4 3 3 3 3 3 2 2 2 2 3 2 1 0 1 1 1 1 2 2 2 1 1 1 1 2 2 2 2 2 2 3 3 4 4 5
2 2 3 3 3 3 4 4 4 4 3 3 3 3 3 3 3 3 3 2 2 1 1 1 2 2 2 2 2 2 2 2 3 3 3 2 2 3 3 4 5 5 6
2 3 3 3 3 3 3 3 3 3 4 4 4 3 3 2 3 3 3 2 2 1 0 1 2 2 2 2 2 3 2 3 3 3 4 3 3 3 4 5 5 6 6
3 4 4 3 3 3 3 3 3 3 3 4 4 4 2 2 3 3 4 4 2 1 1 2 1 2 2 2 2 3 2 3 3 4 4 4 3 4 4 5 5 6 7
2 3 3 4 4 4 4 4 3 3 3 3 4 4 3 2 3 2 3 4 5 3 3 3 2 2 2 2 3 2 2 4 4 3 3 3 4 4 4 5 5 6 7
2 3 3 4 4 4 4 4 3 4 4 4 3 4 3 2 2 3 3 2 2 4 3 2 2 2 2 2 3 2 2 4 4 4 4 4 4 5 5 5 6 7 7
3 4 4 4 4 4 4 4 4 4 5 4 3 4 4 3 3 2 3 2 2 3 3 1 1 1 2 2 1 1 2 2 3 5 5 5 5 5 5 5 6 7 8
2 3 3 3 4 4 4 5 5 5 5 5 5 4 5 4 4 3 3 3 3 3 4 3 2 2 2 2 2 2 2 2 2 4 6 6 6 6 6 6 7 8 8
2 2 2 3 4 4 4 4 5 5 5 5 5 5 5 5 5 4 4 4 3 3 3 3 3 2 1 1 1 1 1 1 2 3 5 6 6 6 6 8 8 8 9
2 2 2 3 3 3 4 4 4 4 4 4 5 5 6 6 6 6 5 5 4 4 4 3 3 2 2 2 2 2 1 1 2 2 3 4 6 7 8 9 8 9 9
1 2 2 1 2 2 3 4 4 5 4 4 4 4 5 6 8 7 5 5 6 5 4 4 3 2 2 2 3 2 2 1 2 2 2 2 3 3 4 7 8 9 10
1 1 2 2 2 2 3 5 4 4 4 4 4 4 4 5 7 9 9 8 8 7 6 5 4 4 4 4 3 3 2 1 2 2 2 3 2 3 4 4 8 10 11
0 1 1 2 2 3 4 5 5 3 4 4 4 4 3 4 5 4 6 6 7 9 9 7 6 6 5 5 5 4 4 4 4 2 1 3 2 4 4 5 10 11 11
1 1 1 2 2 2 3 4 5 3 2 3 4 4 4 4 4 5 4 3 3 5 6 5 6 6 6 5 6 5 4 3 2 2 2 3 2 3 3 4 9 11 11
1 1 1 1 2 2 3 4 4 2 2 3 3 3 4 4 6 7 5 4 3 3 5 6 7 6 7 8 6 3 3 2 3 3 3 3 2 2 3 4 5 9 9
1 1 1 1 2 2 3 4 4 2 2 2 2 3 5 5 6 7 5 4 4 4 3 3 3 4 4 5 7 5 5 3 2 3 3 2 2 1 3 2 2 3 4
Wind_Direction
139 126 113 108 110 115 122 122 119 117 114 106 102 103 95 96 96 86 61 84 104 120 128 129 128 125 120 116 112 107 103 100 99 95 91 86 82 79 74 71 67 63 60
147 137 129 116 113 116 123 126 128 124 120 116 109 104 98 87 92 94 78 66 77 100 121 133 135 131 125 120 114 109 106 104 101 97 92 86 82 79 75 71 67 62 57
141 139 134 124 119 115 115 109 108 104 109 108 106 105 98 88 87 91 91 79 59 67 98 129 137 135 129 124 119 113 110 106 104 100 95 90 84 79 74 68 62 57 52
129 133 136 134 126 115 116 116 114 102 101 105 98 90 88 86 83 88 84 82 76 60 67 96 121 134 133 130 127 122 118 112 107 102 99 93 86 79 73 66 59 53 46
130 133 141 138 132 120 122 129 114 115 119 111 97 73 60 70 66 86 87 83 85 83 74 72 85 107 124 131 133 130 126 120 113 106 100 93 87 79 69 62 53 44 37
130 125 132 137 133 130 125 124 123 109 121 125 100 74 48 45 52 56 82 83 86 92 89 82 78 83 100 123 130 133 134 130 122 115 107 97 86 73 61 51 42 33 28
136 134 137 138 140 145 146 140 123 120 121 130 104 80 39 40 51 41 40 74 88 101 102 99 95 86 79 89 115 130 135 135 131 126 117 105 89 71 50 39 27 21 22
157 155 147 157 157 141 139 145 131 126 129 148 133 124 103 13 353 38 58 139 134 104 118 117 111 109 98 82 75 99 126 136 140 137 125 108 85 54 31 15 11 12 10
178 168 162 159 165 161 166 168 158 148 154 173 161 149 155 186 200 357 358 56 120 139 153 138 129 120 117 107 90 71 92 134 162 154 142 127 85 0 346 348 347 344 353
186 179 168 165 168 167 170 177 170 160 151 165 168 123 131 140 149 154 331 349 51 180 192 171 151 140 131 130 134 117 115 147 184 185 180 201 260 303 317 327 334 337 339
194 185 176 171 174 174 176 174 166 171 167 169 168 153 127 103 128 145 180 228 323 264 203 190 175 165 152 148 174 170 171 198 208 217 218 235 265 284 303 316 319 319 323
203 198 188 183 184 181 181 182 175 178 183 174 172 165 161 159 171 157 165 183 211 251 222 193 190 181 170 171 187 179 198 212 229 237 243 250 269 285 295 301 304 309 313
209 210 200 194 193 191 183 175 175 183 186 182 181 184 181 175 155 152 148 158 182 231 239 220 203 184 176 172 194 186 210 222 236 247 256 263 275 286 293 296 298 302 306
210 201 195 194 194 189 185 179 179 189 187 191 191 182 181 184 170 167 160 153 157 205 233 233 209 190 183 173 197 189 204 225 241 252 264 277 290 295 290 291 296 300 303
206 198 194 192 191 191 188 181 189 190 183 190 187 181 179 184 175 174 167 166 161 181 220 219 208 194 185 177 199 180 193 228 236 253 269 284 286 286 287 287 292 296 299
191 194 197 195 194 195 191 186 186 182 179 187 181 176 179 180 174 161 164 167 163 168 197 210 207 185 173 176 199 183 204 231 232 245 257 267 272 274 277 283 287 291 294
189 197 200 196 194 195 191 187 191 180 181 182 179 178 186 175 175 166 160 164 168 158 186 222 186 163 166 182 201 200 209 217 228 247 257 262 267 269 270 276 282 286 288
199 202 197 194 195 192 189 189 191 188 185 188 191 186 194 181 179 175 175 180 181 175 173 198 195 191 196 193 194 210 225 225 226 249 256 261 264 266 269 275 280 283 286
197 197 191 196 197 192 192 195 190 191 194 196 195 197 200 187 191 183 182 188 185 179 169 174 193 188 193 177 176 220 231 234 245 250 254 258 261 265 272 277 280 280 280
185 198 205 206 200 192 194 195 191 196 199 201 202 203 201 195 195 186 185 189 179 170 165 172 185 192 197 183 167 196 244 233 257 259 249 255 262 270 274 274 276 277 275
184 188 193 200 194 195 200 197 194 196 196 199 205 208 209 202 199 194 189 185 180 176 174 180 191 187 193 186 198 190 217 254 264 235 234 245 251 252 261 270 276 274 272
179 169 185 194 201 217 209 203 194 191 191 195 205 209 209 203 205 206 207 200 193 185 185 186 195 200 209 201 188 186 192 194 267 232 211 260 230 244 246 242 263 272 274
174 192 204 199 214 221 206 204 198 188 190 199 202 199 206 205 201 195 205 208 212 212 202 190 193 204 203 197 184 191 199 207 229 224 210 263 240 249 247 256 269 273 275
233 237 237 224 218 225 210 206 201 190 190 201 201 200 202 199 198 188 181 191 213 216 211 205 203 204 202 192 189 196 204 217 242 233 196 245 244 251 263 253 266 270 274
265 254 242 231 230 246 225 207 189 177 192 209 208 205 201 202 206 197 182 192 216 227 223 216 215 215 214 210 193 170 177 195 250 245 202 219 245 268 270 260 259 269 277
250 262 274 246 228 242 239 215 191 179 194 211 218 216 212 212 213 207 194 192 218 227 203 203 215 222 217 214 210 196 187 200 224 248 209 202 227 281 293 266 251 261 275